| time (UTC) | temp C | wind direction | speed KPH | gust KPH | rain 1hr cm | rain 24hr cm | rain mn cm | humidity % | barometer mb |
| 20260510205615 | 11 | 10 | 6.4 | 27.4 | 0.00 | 0.00 | 0.00 | 38 | 990.1 |
| 20260510204503 | 11 | 297 | 3.2 | 24.1 | 0.00 | 0.00 | 0.00 | 39 | 990.0 |
| 20260510203815 | 11 | 296 | 11.3 | 24.1 | 0.00 | 0.00 | 0.00 | 37 | 989.9 |
| 20260510202917 | 11 | 275 | 6.4 | 24.1 | 0.00 | 0.00 | 0.00 | 36 | 989.8 |
| 20260510201805 | 12 | 325 | 3.2 | 16.1 | 0.00 | 0.00 | 0.00 | 36 | 989.6 |
| 20260510200903 | 12 | 70 | 1.6 | 17.7 | 0.00 | 0.03 | 0.00 | 37 | 989.5 |
| 20260510200003 | 12 | 345 | 6.4 | 27.4 | 0.00 | 0.03 | 0.00 | 35 | 989.8 |
| 20260510195403 | 12 | 314 | 4.8 | 17.7 | 0.00 | 0.03 | 0.00 | 36 | 989.8 |
| 20260510194503 | 12 | 298 | 8.0 | 17.7 | 0.00 | 0.05 | 0.00 | 34 | 989.7 |
| 20260510193820 | 12 | 343 | 4.8 | 17.7 | 0.00 | 0.23 | 0.00 | 37 | 989.7 |
| 20260510192705 | 12 | 11 | 8.0 | 22.5 | 0.00 | 0.30 | 0.00 | 37 | 989.8 |
| 20260510191803 | 11 | 307 | 6.4 | 27.4 | 0.00 | 0.30 | 0.00 | 40 | 989.9 |
| 20260510191118 | 11 | 248 | 3.2 | 17.7 | 0.00 | 0.30 | 0.00 | 41 | 989.9 |
| 20260510190003 | 11 | 300 | 6.4 | 29.0 | 0.00 | 0.30 | 0.00 | 42 | 989.8 |
| 20260510185405 | 11 | 282 | 12.9 | 29.0 | 0.00 | 0.30 | 0.00 | 41 | 989.7 |
| 20260510184504 | 11 | 291 | 3.2 | 20.9 | 0.00 | 0.30 | 0.00 | 44 | 989.8 |
| 20260510183816 | 11 | 297 | 3.2 | 24.1 | 0.00 | 0.30 | 0.00 | 44 | 989.8 |
| 20260510182919 | 11 | 343 | 6.4 | 22.5 | 0.00 | 0.30 | 0.00 | 47 | 989.6 |
| 20260510181805 | 11 | 56 | 9.7 | 25.7 | 0.00 | 0.30 | 0.00 | 43 | 989.6 |
| 20260510180903 | 11 | 323 | 6.4 | 24.1 | 0.00 | 0.30 | 0.00 | 44 | 989.5 |
| 20260510180005 | 11 | 347 | 14.5 | 24.1 | 0.00 | 0.30 | 0.00 | 44 | 989.4 |
| 20260510175406 | 11 | 53 | 6.4 | 27.4 | 0.00 | 0.30 | 0.00 | 45 | 989.4 |
| 20260510174714 | 11 | 31 | 6.4 | 27.4 | 0.00 | 0.30 | 0.00 | 43 | 989.2 |
| 20260510173606 | 11 | 9 | 4.8 | 29.0 | 0.00 | 0.30 | 0.00 | 45 | 989.2 |
| 20260510172708 | 11 | 339 | 6.4 | 29.0 | 0.00 | 0.30 | 0.00 | 47 | 989.1 |
| 20260510171805 | 10 | 334 | 6.4 | 24.1 | 0.00 | 0.30 | 0.00 | 47 | 989.0 |
| 20260510170903 | 10 | 256 | 6.4 | 33.8 | 0.00 | 0.30 | 0.00 | 46 | 988.9 |
| 20260510170005 | 10 | 1 | 6.4 | 27.4 | 0.00 | 0.30 | 0.00 | 48 | 988.9 |
| 20260510165405 | 10 | 328 | 16.1 | 27.4 | 0.00 | 0.30 | 0.00 | 50 | 988.7 |
| 20260510164505 | 11 | 262 | 8.0 | 24.1 | 0.00 | 0.30 | 0.00 | 51 | 988.7 |
| 20260510163605 | 10 | 312 | 12.9 | 27.4 | 0.00 | 0.30 | 0.00 | 52 | 988.6 |
| 20260510162703 | 10 | 308 | 11.3 | 29.0 | 0.00 | 0.30 | 0.00 | 55 | 988.5 |
| 20260510161806 | 10 | 311 | 16.1 | 33.8 | 0.00 | 0.30 | 0.00 | 56 | 988.5 |
| 20260510160906 | 10 | 319 | 11.3 | 22.5 | 0.00 | 0.30 | 0.00 | 56 | 988.4 |
| 20260510160005 | 10 | 303 | 9.7 | 27.4 | 0.00 | 0.30 | 0.00 | 56 | 988.5 |
| 20260510155613 | 10 | 243 | 0.0 | 17.7 | 0.00 | 0.30 | 0.00 | 57 | 988.5 |
| 20260510154503 | 10 | 337 | 6.4 | 20.9 | 0.00 | 0.30 | 0.00 | 56 | 988.3 |
| 20260510153606 | 10 | 334 | 3.2 | 27.4 | 0.00 | 0.30 | 0.00 | 57 | 988.1 |
| 20260510152703 | 10 | 338 | 6.4 | 22.5 | 0.00 | 0.30 | 0.00 | 58 | 988.0 |
| 20260510151805 | 10 | 339 | 9.7 | 32.2 | 0.00 | 0.30 | 0.00 | 58 | 987.8 |
| 20260510150905 | 10 | 354 | 9.7 | 29.0 | 0.00 | 0.30 | 0.00 | 56 | 987.6 |
| 20260510150006 | 10 | 312 | 16.1 | 29.0 | 0.00 | 0.30 | 0.00 | 57 | 987.5 |
| 20260510145405 | 10 | 318 | 14.5 | 27.4 | 0.00 | 0.30 | 0.00 | 57 | 987.3 |
| 20260510144503 | 11 | 304 | 11.3 | 24.1 | 0.00 | 0.30 | 0.00 | 55 | 987.3 |
| 20260510143605 | 11 | 311 | 4.8 | 25.7 | 0.00 | 0.30 | 0.00 | 54 | 987.2 |
| 20260510142703 | 11 | 305 | 4.8 | 20.9 | 0.00 | 0.30 | 0.00 | 54 | 987.1 |
| 20260510141804 | 10 | 271 | 6.4 | 22.5 | 0.00 | 0.30 | 0.00 | 53 | 987.0 |
| 20260510140904 | 10 | 279 | 11.3 | 19.3 | 0.00 | 0.30 | 0.00 | 54 | 986.8 |
| 20260510140004 | 10 | 326 | 3.2 | 25.7 | 0.00 | 0.30 | 0.00 | 55 | 986.8 |
| 20260510135403 | 10 | 31 | 6.4 | 24.1 | 0.00 | 0.30 | 0.00 | 56 | 986.8 |
| 20260510134503 | 10 | 242 | 8.0 | 17.7 | 0.00 | 0.30 | 0.00 | 56 | 986.8 |
| 20260510133605 | 11 | 108 | 1.6 | 16.1 | 0.00 | 0.30 | 0.00 | 56 | 986.6 |
| 20260510132705 | 10 | 326 | 6.4 | 25.7 | 0.00 | 0.30 | 0.00 | 55 | 986.5 |
| 20260510132019 | 10 | 334 | 9.7 | 25.7 | 0.00 | 0.30 | 0.00 | 56 | 986.4 |
| 20260510131116 | 10 | 32 | 6.4 | 20.9 | 0.00 | 0.30 | 0.00 | 56 | 986.3 |
| 20260510130008 | 10 | 318 | 6.4 | 17.7 | 0.00 | 0.30 | 0.00 | 57 | 986.2 |
| 20260510125405 | 10 | 46 | 3.2 | 19.3 | 0.00 | 0.30 | 0.00 | 59 | 986.2 |
| 20260510124718 | 10 | 332 | 3.2 | 19.3 | 0.00 | 0.30 | 0.00 | 59 | 986.1 |
| 20260510123815 | 10 | 57 | 3.2 | 9.7 | 0.00 | 0.30 | 0.00 | 60 | 986.0 |
| 20260510122704 | 9 | 13 | 4.8 | 20.9 | 0.00 | 0.30 | 0.00 | 63 | 986.1 |
| 20260510121803 | 8 | 321 | 4.8 | 17.7 | 0.00 | 0.30 | 0.00 | 65 | 985.8 |
| 20260510120903 | 8 | 31 | 3.2 | 17.7 | 0.00 | 0.30 | 0.00 | 66 | 985.8 |
| 20260510120007 | 7 | 64 | 6.4 | 17.7 | 0.00 | 0.30 | 0.00 | 66 | 985.7 |
| 20260510115406 | 7 | 191 | 6.4 | 17.7 | 0.00 | 0.30 | 0.00 | 68 | 985.6 |
| 20260510114506 | 7 | 316 | 6.4 | 17.7 | 0.00 | 0.30 | 0.00 | 71 | 985.5 |
| 20260510113605 | 6 | 295 | 6.4 | 17.7 | 0.00 | 0.30 | 0.00 | 75 | 985.4 |
| 20260510112918 | 5 | 315 | 3.2 | 19.3 | 0.00 | 0.30 | 0.00 | 79 | 985.3 |
| 20260510111803 | 4 | 326 | 3.2 | 11.3 | 0.00 | 0.30 | 0.00 | 81 | 985.1 |
| 20260510110905 | 4 | 289 | 3.2 | 12.9 | 0.00 | 0.30 | 0.00 | 82 | 985.0 |
| 20260510110005 | 3 | 311 | 4.8 | 14.5 | 0.00 | 0.30 | 0.00 | 83 | 984.8 |
| 20260510105405 | 3 | 307 | 3.2 | 12.9 | 0.00 | 0.30 | 0.00 | 83 | 984.7 |
| 20260510104505 | 3 | 308 | 1.6 | 12.9 | 0.00 | 0.30 | 0.00 | 84 | 984.6 |
| 20260510103603 | 3 | 316 | 3.2 | 12.9 | 0.00 | 0.30 | 0.00 | 85 | 984.4 |
| 20260510102705 | 2 | 332 | 3.2 | 9.7 | 0.00 | 0.30 | 0.00 | 86 | 984.3 |
| 20260510102016 | 2 | 289 | 3.2 | 8.0 | 0.00 | 0.30 | 0.00 | 86 | 984.1 |
| 20260510100903 | 2 | 326 | 0.0 | 6.4 | 0.00 | 0.30 | 0.00 | 86 | 984.0 |
| 20260510100005 | 2 | 237 | 3.2 | 4.8 | 0.00 | 0.30 | 0.00 | 86 | 983.8 |
| 20260510095405 | 2 | 275 | 3.2 | 9.7 | 0.00 | 0.30 | 0.00 | 85 | 983.6 |
| 20260510094508 | 2 | 321 | 3.2 | 8.0 | 0.00 | 0.30 | 0.00 | 85 | 983.6 |
| 20260510093606 | 2 | 327 | 3.2 | 6.4 | 0.00 | 0.30 | 0.00 | 85 | 983.3 |
| 20260510092914 | 2 | 313 | 1.6 | 11.3 | 0.00 | 0.30 | 0.00 | 85 | 983.3 |
| 20260510091804 | 3 | 295 | 0.0 | 9.7 | 0.00 | 0.30 | 0.00 | 84 | 983.2 |
| 20260510090906 | 3 | 281 | 3.2 | 12.9 | 0.00 | 0.30 | 0.00 | 84 | 983.1 |
| 20260510090005 | 3 | 307 | 3.2 | 12.9 | 0.00 | 0.30 | 0.00 | 83 | 982.9 |
| 20260510085405 | 3 | 278 | 3.2 | 9.7 | 0.00 | 0.30 | 0.00 | 83 | 982.9 |
| 20260510084505 | 3 | 179 | 0.0 | 20.9 | 0.00 | 0.30 | 0.00 | 82 | 982.7 |
| 20260510083605 | 3 | 347 | 3.2 | 12.9 | 0.00 | 0.30 | 0.00 | 82 | 982.6 |
| 20260510082705 | 3 | 13 | 6.4 | 12.9 | 0.00 | 0.30 | 0.00 | 81 | 982.5 |
| 20260510081805 | 3 | 198 | 3.2 | 8.0 | 0.00 | 0.30 | 0.00 | 81 | 982.5 |
| 20260510080905 | 3 | 35 | 1.6 | 11.3 | 0.00 | 0.30 | 0.00 | 81 | 982.3 |
| 20260510080004 | 3 | 225 | 3.2 | 11.3 | 0.00 | 0.30 | 0.00 | 81 | 982.3 |
| 20260510075406 | 3 | 285 | 3.2 | 16.1 | 0.00 | 0.30 | 0.00 | 81 | 982.3 |
| 20260510074505 | 3 | 242 | 3.2 | 16.1 | 0.00 | 0.30 | 0.00 | 82 | 982.2 |
| 20260510073605 | 3 | 285 | 1.6 | 6.4 | 0.00 | 0.30 | 0.00 | 82 | 982.2 |
| 20260510072706 | 3 | 288 | 1.6 | 9.7 | 0.00 | 0.30 | 0.00 | 81 | 982.0 |
| 20260510071803 | 3 | 329 | 1.6 | 4.8 | 0.00 | 0.30 | 0.00 | 80 | 981.8 |
| 20260510070903 | 3 | 303 | 0.0 | 8.0 | 0.00 | 0.30 | 0.00 | 79 | 981.7 |
| 20260510070005 | 4 | 292 | 0.0 | 6.4 | 0.00 | 0.30 | 0.00 | 78 | 981.5 |
| 20260510065405 | 4 | 336 | 3.2 | 8.0 | 0.00 | 0.30 | 0.00 | 77 | 981.5 |
| 20260510064506 | 4 | 342 | 1.6 | 11.3 | 0.00 | 0.30 | 0.00 | 76 | 981.4 |
| 20260510063604 | 5 | 294 | 0.0 | 11.3 | 0.00 | 0.30 | 0.00 | 75 | 981.5 |
| 20260510062705 | 5 | 47 | 3.2 | 12.9 | 0.00 | 0.30 | 0.00 | 74 | 981.5 |
| 20260510061806 | 5 | 241 | 1.6 | 12.9 | 0.00 | 0.30 | 0.00 | 73 | 981.4 |
| 20260510061116 | 5 | 347 | 3.2 | 9.7 | 0.00 | 0.30 | 0.00 | 73 | 981.3 |
| 20260510060005 | 5 | 297 | 6.4 | 19.3 | 0.00 | 0.30 | 0.00 | 72 | 981.2 |
| 20260510055404 | 5 | 298 | 3.2 | 19.3 | 0.00 | 0.30 | 0.00 | 72 | 981.1 |
| 20260510054717 | 5 | 53 | 6.4 | 12.9 | 0.00 | 0.30 | 0.00 | 72 | 981.2 |
| 20260510053603 | 5 | 292 | 6.4 | 17.7 | 0.00 | 0.30 | 0.00 | 72 | 981.1 |
| 20260510052703 | 5 | 320 | 3.2 | 17.7 | 0.00 | 0.30 | 0.00 | 71 | 981.0 |
| 20260510051804 | 5 | 40 | 3.2 | 16.1 | 0.00 | 0.30 | 0.00 | 71 | 980.9 |
| 20260510051116 | 5 | 276 | 4.8 | 14.5 | 0.00 | 0.30 | 0.00 | 72 | 980.8 |
| 20260510050214 | 5 | 344 | 8.0 | 14.5 | 0.00 | 0.30 | 0.00 | 73 | 980.6 |
| 20260510045403 | 5 | 149 | 1.6 | 22.5 | 0.00 | 0.30 | 0.00 | 74 | 980.7 |
| 20260510044503 | 5 | 295 | 6.4 | 24.1 | 0.00 | 0.30 | 0.00 | 74 | 980.5 |
| 20260510043605 | 6 | 262 | 6.4 | 19.3 | 0.00 | 0.30 | 0.00 | 73 | 980.3 |
| 20260510042703 | 6 | 245 | 3.2 | 16.1 | 0.00 | 0.30 | 0.00 | 73 | 980.2 |
| 20260510041804 | 5 | 300 | 6.4 | 24.1 | 0.00 | 0.30 | 0.00 | 74 | 980.0 |
| 20260510040904 | 6 | 16 | 6.4 | 24.1 | 0.00 | 0.30 | 0.00 | 74 | 979.9 |
| 20260510040005 | 6 | 54 | 6.4 | 17.7 | 0.00 | 0.30 | 0.00 | 75 | 979.8 |
| 20260510035408 | 6 | 336 | 3.2 | 20.9 | 0.00 | 0.30 | 0.00 | 74 | 979.7 |
| 20260510034505 | 6 | 288 | 11.3 | 20.9 | 0.00 | 0.30 | 0.00 | 74 | 979.6 |
| 20260510033603 | 6 | 276 | 3.2 | 17.7 | 0.00 | 0.30 | 0.00 | 73 | 979.4 |
| 20260510032706 | 6 | 222 | 4.8 | 17.7 | 0.00 | 0.30 | 0.00 | 71 | 979.1 |
| 20260510031803 | 7 | 294 | 4.8 | 12.9 | 0.00 | 0.30 | 0.00 | 70 | 979.1 |
| 20260510030905 | 6 | 302 | 6.4 | 12.9 | 0.00 | 0.30 | 0.00 | 71 | 979.1 |
| 20260510030220 | 7 | 355 | 3.2 | 16.1 | 0.00 | 0.30 | 0.00 | 71 | 978.9 |
| 20260510025616 | 7 | 335 | 1.6 | 12.9 | 0.00 | 0.30 | 0.00 | 72 | 978.9 |
| 20260510024506 | 7 | 214 | 1.6 | 9.7 | 0.00 | 0.30 | 0.00 | 71 | 978.7 |
| 20260510023604 | 7 | 343 | 3.2 | 24.1 | 0.00 | 0.30 | 0.00 | 70 | 978.7 |
| 20260510022918 | 7 | 4 | 3.2 | 24.1 | 0.00 | 0.30 | 0.00 | 69 | 978.7 |
| 20260510021806 | 7 | 50 | 3.2 | 17.7 | 0.00 | 0.30 | 0.00 | 67 | 978.4 |
| 20260510020906 | 7 | 91 | 1.6 | 11.3 | 0.00 | 0.30 | 0.00 | 66 | 978.3 |
| 20260510020005 | 7 | 267 | 1.6 | 8.0 | 0.00 | 0.30 | 0.00 | 65 | 978.3 |
| 20260510015617 | 8 | 303 | 3.2 | 11.3 | 0.00 | 0.30 | 0.00 | 64 | 978.1 |
| 20260510014719 | 8 | 47 | 3.2 | 12.9 | 0.00 | 0.30 | 0.00 | 64 | 978.0 |
| 20260510013605 | 8 | 318 | 3.2 | 12.9 | 0.00 | 0.30 | 0.00 | 64 | 977.6 |
| 20260510012705 | 8 | 331 | 0.0 | 16.1 | 0.00 | 0.30 | 0.00 | 65 | 977.4 |
| 20260510011805 | 8 | 58 | 4.8 | 12.9 | 0.00 | 0.30 | 0.00 | 65 | 977.4 |
| 20260510011114 | 8 | 194 | 4.8 | 12.9 | 0.00 | 0.30 | 0.00 | 65 | 977.3 |
| 20260510010216 | 8 | 221 | 1.6 | 8.0 | 0.00 | 0.30 | 0.00 | 66 | 977.0 |
| 20260510005405 | 9 | 248 | 3.2 | 12.9 | 0.00 | 0.30 | 0.00 | 66 | 977.0 |
| 20260510004503 | 9 | 36 | 3.2 | 17.7 | 0.00 | 0.30 | 0.00 | 66 | 976.7 |
| 20260510003605 | 10 | 19 | 3.2 | 17.7 | 0.00 | 0.30 | 0.00 | 67 | 976.8 |
| 20260510002705 | 10 | 66 | 4.8 | 17.7 | 0.00 | 0.30 | 0.00 | 68 | 976.5 |
| 20260510001806 | 10 | 323 | 0.0 | 12.9 | 0.00 | 0.30 | 0.00 | 69 | 976.5 |
| 20260510000905 | 10 | 346 | 4.8 | 8.0 | 0.00 | 0.30 | 0.00 | 70 | 976.2 |
| 20260510000006 | 10 | 60 | 3.2 | 12.9 | 0.00 | 0.30 | 0.00 | 70 | 976.0 |
| 20260509235403 | 10 | 250 | 3.2 | 12.9 | 0.00 | 0.30 | 0.00 | 70 | 976.0 |
| 20260509234503 | 10 | 108 | 3.2 | 22.5 | 0.00 | 0.30 | 0.00 | 69 | 975.6 |
| 20260509233605 | 10 | 100 | 4.8 | 17.7 | 0.00 | 0.30 | 0.00 | 70 | 975.4 |
| 20260509232703 | 10 | 348 | 3.2 | 19.3 | 0.00 | 0.30 | 0.00 | 70 | 975.3 |
| 20260509231806 | 11 | 340 | 6.4 | 17.7 | 0.00 | 0.30 | 0.00 | 70 | 975.3 |
| 20260509231115 | 11 | 338 | 3.2 | 17.7 | 0.00 | 0.30 | 0.00 | 70 | 975.1 |
| 20260509230006 | 11 | 21 | 3.2 | 17.7 | 0.00 | 0.30 | 0.00 | 68 | 974.9 |
| 20260509225406 | 12 | 240 | 3.2 | 19.3 | 0.00 | 0.30 | 0.30 | 68 | 974.6 |
| 20260509224503 | 12 | 330 | 8.0 | 24.1 | 0.00 | 0.30 | 0.30 | 66 | 974.4 |
| 20260509223606 | 13 | 279 | 6.4 | 16.1 | 0.00 | 0.30 | 0.30 | 65 | 974.3 |
| 20260509222706 | 13 | 14 | 0.0 | 14.5 | 0.00 | 0.30 | 0.30 | 66 | 973.9 |
| 20260509221805 | 13 | 224 | 3.2 | 16.1 | 0.00 | 0.30 | 0.30 | 65 | 973.8 |
| 20260509221115 | 13 | 314 | 1.6 | 27.4 | 0.00 | 0.30 | 0.30 | 64 | 973.8 |
| 20260509220005 | 14 | 322 | 11.3 | 29.0 | 0.00 | 0.30 | 0.30 | 64 | 973.2 |
| 20260509215405 | 14 | 304 | 9.7 | 29.0 | 0.00 | 0.30 | 0.30 | 64 | 972.9 |
| 20260509214504 | 15 | 310 | 8.0 | 30.6 | 0.00 | 0.30 | 0.30 | 64 | 972.8 |
| 20260509213603 | 15 | 290 | 9.7 | 27.4 | 0.00 | 0.30 | 0.30 | 65 | 972.7 |
| 20260509212703 | 15 | 300 | 9.7 | 27.4 | 0.00 | 0.30 | 0.30 | 66 | 972.5 |
| 20260509211805 | 15 | 319 | 9.7 | 29.0 | 0.00 | 0.30 | 0.30 | 66 | 972.5 |
| 20260509211116 | 15 | 307 | 11.3 | 29.0 | 0.03 | 0.30 | 0.30 | 66 | 972.5 |
| 20260509210005 | 16 | 317 | 11.3 | 35.4 | 0.03 | 0.30 | 0.30 | 68 | 972.3 |